Location: Tr�vern
(48.0333°N, 4.6000°W)
Time: 02:56:19
(UTC+00:00)

Cosmos 1140 Rocket - Pass Details

Date: 14 July 2020
Orbit: 744 x 768 km, 74.1° (Epoch: 04 August)

Event Time Altitude Azimuth Distance (km) Brightness Sun altitude
Exits shadow 02:32:12 23° 209° (SSW) 1,584 4.5 -14.7°
Maximum altitude 02:35:31 78° 293° (WNW) 786 3.5 -14.4°
Drops below altitude 10° 02:40:47 10° 20° (NNE) 2,314 7.3 -13.9°
Sets 02:43:11 0° 22° (NNE) 3,247 8.5 -13.7°
